WZ9ZZZ-1 Weather Reports


time (UTC)temp
C
wind
direction
speed
KPH
gust
KPH
rain 1hr
cm
rain 24hr
cm
rain mn
cm
humidity
%
barometer
mb
20260506130110 25 110 0.0 0.0 0.00 0.00 0.00 95 1013.7
20260506125609 25 121 0.0 0.0 0.00 0.00 0.00 95 1013.5
20260506125106 25 120 0.0 0.0 0.00 0.00 0.00 95 1013.5
20260506124603 24 121 0.0 0.0 0.00 0.00 0.00 95 1013.7
20260506124101 24 121 0.0 0.0 0.00 0.00 0.00 95 1013.4
20260506123559 24 121 0.0 0.0 0.00 0.00 0.00 95 1013.2
20260506123057 24 121 0.0 0.0 0.00 0.00 0.00 95 1013.4
20260506122553 24 121 0.0 0.0 0.00 0.00 0.00 95 1013.5
20260506122051 24 121 0.0 0.0 0.00 0.00 0.00 95 1013.4
20260506121549 24 121 0.0 0.0 0.00 0.00 0.00 95 1013.3
20260506121044 24 121 0.0 0.0 0.00 0.00 0.00 95 1013.3
20260506120543 24 121 0.0 0.0 0.00 0.00 0.00 95 1013.0
20260506120040 24 122 0.0 0.0 0.00 0.00 0.00 95 1013.1
20260506115538 24 135 0.0 0.0 0.00 0.00 0.00 95 1012.9
20260506115036 24 121 0.0 0.0 0.00 0.00 0.00 95 1013.0
20260506114533 24 107 0.0 0.0 0.00 0.00 0.00 95 1012.9
20260506114032 24 179 0.0 0.0 0.00 0.00 0.00 95 1012.7
20260506113529 24 245 1.6 3.2 0.00 0.00 0.00 95 1012.3
20260506113026 24 158 3.2 8.0 0.00 0.00 0.00 95 1012.3
20260506112522 24 124 0.0 0.0 0.00 0.00 0.00 95 1012.4
20260506112020 24 127 0.0 0.0 0.00 0.00 0.00 95 1012.3
20260506111518 24 130 0.0 0.0 0.00 0.00 0.00 95 1012.4
20260506111015 24 127 0.0 0.0 0.00 0.00 0.00 95 1012.3
20260506110513 24 124 0.0 0.0 0.00 0.00 0.00 95 1012.2
20260506110010 24 133 0.0 0.0 0.00 0.00 0.00 95 1012.4
20260506105505 24 122 0.0 0.0 0.00 0.00 0.00 95 1012.4
20260506105003 24 123 0.0 0.0 0.00 0.00 0.00 95 1012.5
20260506104501 24 113 0.0 0.0 0.00 0.00 0.00 95 1012.7
20260506103959 24 184 0.0 0.0 0.00 0.00 0.00 95 1012.3
20260506103455 24 276 0.0 0.0 0.00 0.00 0.00 95 1012.6
20260506102952 24 155 0.0 0.0 0.00 0.00 0.00 95 1012.2
20260506102450 24 130 0.0 0.0 0.00 0.00 0.00 95 1012.6
20260506101947 24 151 0.0 0.0 0.00 0.00 0.00 95 1012.3
20260506101444 24 141 0.0 0.0 0.00 0.00 0.00 95 1012.2
20260506100941 24 181 0.0 0.0 0.00 0.00 0.00 95 1012.1
20260506100439 24 154 1.6 3.2 0.00 0.00 0.00 95 1012.3
20260506095937 24 118 0.0 0.0 0.00 0.00 0.00 94 1012.2
20260506095436 24 162 3.2 3.2 0.00 0.00 0.00 94 1012.1
20260506094931 24 193 1.6 3.2 0.00 0.00 0.00 94 1011.8
20260506094430 24 98 0.0 0.0 0.00 0.00 0.00 94 1012.0
20260506093927 24 121 0.0 0.0 0.00 0.00 0.00 94 1012.1
20260506093425 24 116 0.0 0.0 0.00 0.00 0.00 94 1012.1
20260506092923 24 123 0.0 0.0 0.00 0.00 0.00 94 1012.2
20260506092421 24 122 0.0 0.0 0.00 0.00 0.00 94 1012.1
20260506091917 24 117 0.0 0.0 0.00 0.00 0.00 94 1012.0
20260506091415 25 116 0.0 0.0 0.00 0.00 0.00 94 1012.2
20260506090912 25 114 0.0 1.6 0.00 0.00 0.00 94 1012.4
20260506090409 25 122 0.0 1.6 0.00 0.00 0.00 94 1012.2
20260506085906 25 126 0.0 0.0 0.00 0.00 0.00 94 1012.3
20260506085403 25 122 0.0 1.6 0.00 0.00 0.00 94 1012.3
20260506084859 25 164 1.6 1.6 0.00 0.00 0.00 93 1012.5
20260506084355 25 119 0.0 1.6 0.00 0.00 0.00 93 1012.7
20260506083852 25 131 0.0 1.6 0.00 0.00 0.00 93 1012.3
20260506083350 25 122 0.0 0.0 0.00 0.00 0.00 93 1012.6
20260506082847 25 114 0.0 1.6 0.00 0.00 0.00 93 1012.8
20260506082344 25 147 3.2 3.2 0.00 0.00 0.00 93 1012.3
20260506081839 25 260 3.2 4.8 0.00 0.00 0.00 93 1012.9
20260506081338 25 177 3.2 3.2 0.00 0.00 0.00 93 1012.7
20260506080835 25 122 0.0 1.6 0.00 0.00 0.00 93 1012.8
20260506080331 25 243 8.0 9.7 0.00 0.00 0.00 93 1012.6
20260506073316 25 195 4.8 4.8 0.00 0.00 0.00 92 1013.1
20260506072812 25 130 0.0 0.0 0.00 0.00 0.00 92 1013.4
20260506072310 25 135 1.6 1.6 0.00 0.00 0.00 92 1013.0
20260506071807 25 148 6.4 9.7 0.00 0.00 0.00 92 1013.4
20260506071306 25 203 4.8 4.8 0.00 0.00 0.00 92 1013.2
20260506070802 25 214 6.4 8.0 0.00 0.00 0.00 92 1013.5
20260506070259 25 90 3.2 4.8 0.00 0.00 0.00 92 1013.5
20260506062236 25 249 4.8 8.0 0.00 0.00 0.00 91 1013.2
20260506061732 25 254 8.0 9.7 0.00 0.00 0.00 91 1013.3
20260506061230 25 139 6.4 9.7 0.00 0.00 0.00 91 1013.0
20260506060728 25 83 3.2 4.8 0.00 0.00 0.00 91 1013.1
20260506060225 25 245 4.8 4.8 0.00 0.00 0.00 91 1013.2
20260506051157 25 281 3.2 4.8 0.00 0.00 0.00 91 1013.5
20260506050655 25 134 0.0 1.6 0.00 0.00 0.00 91 1013.6
20260506050152 25 120 1.6 1.6 0.00 0.00 0.00 91 1013.7
20260506044643 25 208 4.8 4.8 0.00 0.00 0.00 91 1013.4
20260506044140 25 193 6.4 11.3 0.00 0.00 0.00 91 1013.4
20260506043637 25 208 8.0 9.7 0.00 0.00 0.00 91 1013.2
20260506043135 25 165 1.6 4.8 0.00 0.00 0.00 91 1013.3
20260506042634 25 177 3.2 3.2 0.00 0.00 0.00 91 1013.3
20260506042131 25 122 3.2 4.8 0.00 0.00 0.00 91 1013.2
20260506041630 25 58 3.2 3.2 0.00 0.00 0.00 91 1013.2
20260506041126 25 202 6.4 8.0 0.00 0.00 0.00 91 1013.3
20260506040624 25 169 1.6 3.2 0.00 0.00 0.00 91 1013.1
20260506040120 25 244 3.2 8.0 0.00 0.00 0.00 91 1013.1
20260506035617 25 210 6.4 9.7 0.00 0.00 0.00 91 1013.1
20260506035114 25 149 3.2 3.2 0.00 0.00 0.00 91 1013.3
20260506034611 25 251 8.0 9.7 0.00 0.00 0.00 91 1013.3
20260506034108 25 159 3.2 3.2 0.00 0.00 0.00 91 1013.2
20260506033605 25 219 4.8 4.8 0.00 0.00 0.00 91 1013.4
20260506033102 25 173 4.8 4.8 0.00 0.00 0.00 91 1013.3
20260506032600 25 107 9.7 16.1 0.00 0.00 0.00 91 1013.0
20260506032056 25 191 3.2 4.8 0.00 0.00 0.00 91 1013.1
20260506031554 25 111 1.6 1.6 0.00 0.00 0.00 91 1013.0
20260506031050 25 220 4.8 8.0 0.00 0.00 0.00 91 1012.8
20260506030549 25 124 0.0 0.0 0.00 0.00 0.00 91 1013.0
20260506030046 25 137 0.0 0.0 0.00 0.00 0.00 91 1013.0
20260506025543 25 277 1.6 4.8 0.00 0.00 0.00 91 1012.8
20260506025038 25 268 6.4 11.3 0.00 0.00 0.00 91 1012.5
20260506024536 25 153 1.6 3.2 0.00 0.00 0.00 91 1012.7
20260506024032 25 208 3.2 4.8 0.00 0.00 0.00 91 1012.5
20260506023528 25 191 3.2 4.8 0.00 0.00 0.00 91 1012.4
20260506023026 25 155 0.0 1.6 0.00 0.00 0.00 91 1012.4
20260506022523 25 231 3.2 3.2 0.00 0.00 0.00 91 1012.6
20260506022021 25 169 1.6 1.6 0.00 0.00 0.00 91 1012.4
20260506021518 25 164 3.2 3.2 0.00 0.00 0.00 91 1012.3
20260506021015 25 197 0.0 0.0 0.00 0.00 0.00 91 1012.3
20260506020513 25 173 3.2 3.2 0.00 0.00 0.00 90 1012.3
20260506020010 25 252 9.7 11.3 0.00 0.00 0.00 90 1012.1
20260506015507 25 131 1.6 1.6 0.00 0.00 0.00 90 1012.2
20260506015004 25 140 1.6 1.6 0.00 0.00 0.00 90 1012.2
20260506014502 25 135 0.0 1.6 0.00 0.00 0.00 89 1012.1
20260506013957 25 218 4.8 8.0 0.00 0.00 0.00 89 1011.9
20260506013455 25 109 1.6 1.6 0.00 0.00 0.00 89 1011.9
20260506012951 25 264 4.8 9.7 0.00 0.00 0.00 89 1011.9
20260506012448 25 197 3.2 3.2 0.00 0.00 0.00 88 1011.7
20260506011945 25 85 1.6 1.6 0.00 0.00 0.00 88 1011.6
20260506011442 25 231 8.0 12.9 0.00 0.00 0.00 88 1011.7
20260506010939 25 179 3.2 3.2 0.00 0.00 0.00 88 1011.7
20260506010438 25 68 3.2 3.2 0.00 0.00 0.00 88 1011.5
20260506005933 25 232 8.0 12.9 0.00 0.00 0.00 88 1011.4
20260506005432 25 251 11.3 12.9 0.00 0.00 0.00 88 1011.6
20260506004926 25 138 6.4 8.0 0.00 0.00 0.00 87 1011.4
20260506004425 25 273 4.8 9.7 0.00 0.00 0.00 87 1011.4
20260506003920 25 216 4.8 4.8 0.00 0.00 0.00 87 1011.2
20260506003417 26 174 4.8 8.0 0.00 0.00 0.00 87 1011.3
20260506002914 26 179 3.2 3.2 0.00 0.00 0.00 87 1011.1
20260506002410 26 236 4.8 8.0 0.00 0.00 0.00 86 1011.3
20260506001905 26 182 4.8 4.8 0.00 0.00 0.00 86 1011.1
20260506001403 26 190 4.8 4.8 0.00 0.00 0.00 86 1011.3
20260506000900 26 153 3.2 4.8 0.00 0.00 0.00 86 1011.2
20260506000358 26 180 4.8 8.0 0.00 0.00 0.00 86 1011.4
20260505235854 26 239 4.8 8.0 0.00 0.00 0.00 85 1011.2
20260505235352 26 133 4.8 9.7 0.00 0.00 0.00 85 1011.5
20260505234848 26 258 12.9 16.1 0.00 0.00 0.00 85 1011.1
20260505234346 26 174 1.6 1.6 0.00 0.00 0.00 85 1011.3
20260505233843 26 235 9.7 12.9 0.00 0.00 0.00 85 1011.2
20260505233341 26 236 9.7 11.3 0.00 0.00 0.00 85 1011.1
20260505232838 26 117 3.2 4.8 0.00 0.00 0.00 84 1011.4
20260505232336 26 249 6.4 11.3 0.00 0.00 0.00 84 1011.6
20260505231832 26 240 8.0 9.7 0.00 0.00 0.00 83 1011.3
20260505231330 26 203 6.4 8.0 0.00 0.00 0.00 83 1011.3
20260505230828 26 244 4.8 8.0 0.00 0.00 0.00 82 1011.5
20260505230325 26 285 8.0 11.3 0.00 0.00 0.00 82 1011.3
20260505225821 26 241 8.0 11.3 0.00 0.00 0.00 82 1011.2
20260505225319 27 195 4.8 8.0 0.00 0.00 0.00 82 1011.2
20260505224813 26 215 11.3 14.5 0.00 0.00 0.00 82 1011.3
20260505224312 26 208 8.0 9.7 0.00 0.00 0.00 82 1011.2
20260505223808 26 226 11.3 14.5 0.00 0.00 0.00 81 1011.4
20260505223306 26 244 3.2 4.8 0.00 0.00 0.00 82 1011.4
20260505222801 26 271 8.0 12.9 0.00 0.00 0.00 82 1011.4
20260505222257 26 202 8.0 11.3 0.00 0.00 0.00 83 1011.4
20260505221755 26 215 8.0 9.7 0.00 0.00 0.00 83 1011.4
20260505221251 26 161 6.4 9.7 0.00 0.00 0.00 83 1011.6
20260505220748 26 251 8.0 11.3 0.00 0.00 0.00 83 1011.4
20260505220245 26 228 8.0 11.3 0.00 0.00 0.00 83 1011.6
20260505215744 26 216 6.4 9.7 0.00 0.00 0.00 83 1011.7
20260505215241 26 232 8.0 9.7 0.00 0.00 0.00 83 1011.7
20260505214739 26 209 11.3 12.9 0.00 0.00 0.00 83 1011.8
20260505214236 26 267 8.0 9.7 0.00 0.00 0.00 83 1011.7
20260505213733 26 229 6.4 9.7 0.00 0.00 0.00 83 1011.7
20260505213230 26 260 14.5 25.7 0.00 0.00 0.00 82 1011.8
20260505212726 27 138 8.0 14.5 0.00 0.00 0.00 82 1011.8
20260505212224 27 242 8.0 9.7 0.00 0.00 0.00 82 1012.0
20260505211721 27 192 1.6 3.2 0.00 0.00 0.00 83 1012.0
20260505211218 27 211 14.5 20.9 0.00 0.00 0.00 82 1012.0
20260505210714 27 210 9.7 14.5 0.00 0.00 0.00 82 1012.1
20260505210211 27 220 4.8 4.8 0.00 0.00 0.00 82 1011.9
20260505205709 27 223 11.3 17.7 0.00 0.00 0.00 82 1011.8
20260505205207 27 204 11.3 16.1 0.00 0.00 0.00 82 1012.3
20260505204703 27 195 11.3 17.7 0.00 0.00 0.00 82 1012.2
20260505204201 27 193 12.9 17.7 0.00 0.00 0.00 82 1012.6
20260505203658 27 257 11.3 12.9 0.00 0.00 0.00 82 1012.4
20260505203154 27 174 8.0 11.3 0.00 0.00 0.00 82 1012.3
20260505202650 27 266 8.0 9.7 0.00 0.00 0.00 82 1012.6
20260505202146 27 253 11.3 11.3 0.00 0.00 0.00 81 1012.6
20260505201643 27 273 11.3 11.3 0.00 0.00 0.00 82 1012.8
20260505201141 27 188 3.2 4.8 0.00 0.00 0.00 81 1012.8
20260505200639 27 253 6.4 8.0 0.00 0.00 0.00 81 1012.8
20260505200136 27 240 8.0 11.3 0.00 0.00 0.00 81 1012.9
20260505195632 27 249 11.3 16.1 0.00 0.00 0.00 82 1012.6
20260505195129 27 227 8.0 12.9 0.00 0.00 0.00 81 1012.8
20260505194626 27 163 8.0 11.3 0.00 0.00 0.00 82 1012.9
20260505194122 27 178 9.7 12.9 0.00 0.00 0.00 81 1013.0
20260505193619 27 234 8.0 14.5 0.00 0.00 0.00 82 1012.7
20260505193116 27 280 11.3 12.9 0.00 0.00 0.00 81 1012.7
20260505192615 27 259 4.8 8.0 0.00 0.00 0.00 82 1012.7
20260505192112 27 215 11.3 14.5 0.00 0.00 0.00 82 1013.0
20260505191610 26 226 8.0 9.7 0.00 0.00 0.00 83 1013.0
20260505191108 26 246 4.8 9.7 0.00 0.00 0.00 84 1013.1
20260505190603 26 218 4.8 4.8 0.00 0.00 0.00 84 1013.0
20260505190058 26 227 9.7 11.3 0.00 0.00 0.00 85 1013.0
20260505185555 26 236 6.4 9.7 0.00 0.00 0.00 85 1012.9
20260505185051 26 181 4.8 8.0 0.00 0.00 0.00 85 1013.2
20260505184548 26 210 8.0 9.7 0.00 0.00 0.00 84 1013.1
20260505184045 26 227 6.4 9.7 0.00 0.00 0.00 84 1013.4
20260505183542 26 215 8.0 9.7 0.00 0.00 0.00 84 1013.2
20260505183039 26 229 11.3 12.9 0.00 0.00 0.00 84 1013.4
20260505182535 26 175 4.8 9.7 0.00 0.00 0.00 84 1013.4
20260505182032 26 310 8.0 9.7 0.00 0.00 0.00 84 1013.5
20260505181529 26 240 9.7 11.3 0.00 0.00 0.00 84 1013.5
20260505181027 26 282 14.5 20.9 0.00 0.00 0.00 84 1013.3
20260505180522 26 266 4.8 9.7 0.00 0.00 0.00 84 1013.5
20260505180021 26 248 4.8 4.8 0.00 0.00 0.00 84 1013.5
20260505175520 26 204 4.8 8.0 0.00 0.00 0.00 85 1013.5
20260505175018 26 159 4.8 8.0 0.00 0.00 0.00 85 1013.4
20260505174515 25 198 8.0 11.3 0.00 0.00 0.00 86 1013.5
20260505174010 25 243 11.3 12.9 0.00 0.00 0.00 86 1013.5
20260505173507 25 292 6.4 8.0 0.00 0.00 0.00 85 1013.4
20260505173004 25 245 4.8 9.7 0.00 0.00 0.00 85 1013.5
20260505172502 25 238 4.8 8.0 0.00 0.00 0.00 86 1013.8
20260505171957 25 243 6.4 8.0 0.00 0.00 0.00 87 1013.7
20260505171453 25 293 9.7 12.9 0.00 0.00 0.00 87 1013.9
20260505170950 25 242 6.4 8.0 0.00 0.00 0.00 86 1013.7
20260505170447 25 176 4.8 4.8 0.00 0.00 0.00 85 1013.9
20260505165942 25 242 12.9 17.7 0.00 0.00 0.00 85 1013.8
20260505165438 25 184 4.8 8.0 0.00 0.00 0.00 85 1013.9
20260505164934 25 169 4.8 4.8 0.00 0.00 0.00 85 1013.6
20260505164431 26 238 6.4 11.3 0.00 0.00 0.00 84 1013.6
20260505163929 26 220 9.7 12.9 0.00 0.00 0.00 84 1013.7
20260505163427 26 220 8.0 9.7 0.00 0.00 0.00 84 1013.8
20260505162926 25 256 6.4 8.0 0.00 0.00 0.00 84 1013.8
20260505162421 26 261 6.4 9.7 0.00 0.00 0.00 84 1013.6
20260505161918 26 206 4.8 4.8 0.00 0.00 0.00 84 1013.7
20260505161415 25 69 6.4 9.7 0.00 0.00 0.00 84 1013.7
20260505160913 25 234 6.4 8.0 0.00 0.00 0.00 84 1013.4
20260505160411 25 232 9.7 11.3 0.00 0.00 0.00 84 1013.5
20260505153349 25 246 12.9 14.5 0.00 0.00 0.00 84 1013.3
20260505152846 25 264 6.4 12.9 0.00 0.00 0.00 84 1013.3
20260505152338 25 219 8.0 12.9 0.00 0.00 0.00 85 1013.4
20260505151837 25 228 11.3 14.5 0.00 0.00 0.00 86 1013.2
20260505151335 25 256 12.9 14.5 0.00 0.00 0.00 88 1013.3
20260505150832 25 125 3.2 4.8 0.00 0.00 0.00 90 1013.1
20260505150329 24 207 6.4 9.7 0.00 0.00 0.00 90 1013.2
20260505140253 24 291 8.0 11.3 0.00 0.00 0.00 87 1013.5
20260505130217 23 215 8.0 9.7 0.00 0.00 0.00 88 1012.9